Regional Weather Roundup
Issued by NWS Portland, ME

Current Version | Previous Version | Text Only | Print | Product List | Glossary Off
Versions: 1 2 3 4 5 6 7 8 9 10 11 12 13 14 15 16 17 18 19 20 21 22 23 24 25 26 27 28 29 30 31 32 33 34 35 36 37 38 39 40 41 42 43 44 45 46 47 48 49 50
000 ASUS41 KGYX 170010 RWRGYX WEATHER ROUNDUP FOR MAINE AND NEW HAMPSHIRE NATIONAL WEATHER SERVICE GRAY ME 700 PM EST WED JAN 16 2019 MEZ002-005-006-010-012-015-018-020-021-024-026-027-029-170100- MAINE CITY SKY/WX TMP DP RH WIND PRES REMARKS PORTLAND MOCLDY 34 22 61 S9 29.91R 6HR MIN TEMP: 34; 6HR MAX TEMP: 37; SANFORD FAIR 32 22 66 SW8 29.93R BAR HARBOR MOCLDY 32 24 72 SW7 29.85R WISCASSET FAIR 34 22 61 SW6 29.90R 6HR MIN TEMP: 29; 6HR MAX TEMP: 36; ROCKLAND FAIR 33 22 63 W12 29.88R FRYEBURG FLURRIES 31 22 69 NW10G21 29.91R 6HR MIN TEMP: 31; 6HR MAX TEMP: 37; 6HR PCP: TRACE; LEWISTONAUBURN MOCLDY 33 23 66 W7 29.89R AUGUSTA CLOUDY 32 21 64 VRB7 29.88R 6HR MIN TEMP: 31; 6HR MAX TEMP: 34; 6HR PCP: TRACE; WATERVILLE FLURRIES 31 24 75 MISG 29.84R BANGOR MOCLDY 33 21 61 SW9 29.84R 6HR MIN TEMP: 32; 6HR MAX TEMP: 35; GREENVILLE N/A 24 11 57 W10G23 29.74R WCI 14 6HR MIN TEMP: 24; 6HR MAX TEMP: 26; 6HR PCP: 0.02; MILLINOCKET CLOUDY 28 23 81 W7 29.80R 6HR MIN TEMP: 27; 6HR MAX TEMP: 30; 6HR PCP: 0.01; HOULTON LGT SNOW 27 23 85 SW14G22 29.73R VSB 3/4 WCI 16 6HR MIN TEMP: 26; 6HR MAX TEMP: 29; 6HR PCP: TRACE; PRESQUE ISLE MOCLDY 24 22 91 SW6 29.70S 6HR MIN TEMP: 22; 6HR MAX TEMP: 27; 6HR PCP: 0.01; FRENCHVILLE LGT SNOW 20 13 74 N26G43 29.65R WCI 2 6HR MIN TEMP: 25; 6HR MAX TEMP: 27; 6HR PCP: 0.01; CARIBOU MOCLDY 26 19 74 W9 29.66R 6HR MIN TEMP: 21; 6HR MAX TEMP: 27; 6HR PCP: 0.01; $$ NHZ002-005-008-009-011-012-014-170100- NEW HAMPSHIRE CITY SKY/WX TMP DP RH WIND PRES REMARKS PORTSMOUTH MOCLDY 34 19 55 SW6 29.93R ROCHESTER CLOUDY 33 22 63 VRB3 29.92R 6HR MIN TEMP: 32; 6HR MAX TEMP: 36; NASHUA CLOUDY 34 22 61 VRB3 29.97R MANCHESTER MOCLDY 35 20 54 SW6 29.95R 6HR MIN TEMP: 34; 6HR MAX TEMP: 38; CONCORD MOCLDY 33 22 63 W9 29.95R 6HR MIN TEMP: 32; 6HR MAX TEMP: 36; 6HR PCP: TRACE; LACONIA FAIR 31 24 75 W13 29.92R PLYMOUTH FLURRIES 31 27 86 NW7 29.93R BERLIN FLURRIES 26 16 65 W12 29.89R WCI 16 6HR MIN TEMP: 26; 6HR MAX TEMP: 33; 6HR PCP: TRACE; WHITEFIELD LGT SNOW 26 18 71 W15G24 29.93R WCI 14 6HR MIN TEMP: 26; 6HR MAX TEMP: 32; 6HR PCP: TRACE; JAFFREY CLOUDY 33 21 61 VRB7G17 29.93R 6HR MIN TEMP: 31; 6HR MAX TEMP: 33; KEENE FAIR 34 19 54 W12G20 29.98R LEBANON LGT SNOW 31 18 58 NW17G29 29.97R WCI 19 6HR MIN TEMP: 32; 6HR MAX TEMP: 35; 6HR PCP: TRACE; MT WASHINGTON NOT AVBL $$ VTZ005-007-008-170100- VERMONT CITY SKY/WX TMP DP RH WIND PRES REMARKS ST JOHNSBURY N/A 23 13 65 MISG 29.98R MONTPELIER CLOUDY 21 12 68 NW18G28 30.03R WCI 6 BURLINGTON FAIR 19 5 54 NW16 30.12R WCI 4 $$ MAZ007-012-024-CTZ003-RIZ002-NYZ038-NYZ072-170100- SOUTHERN NEW ENGLAND AND NY CITY SKY/WX TMP DP RH WIND PRES REMARKS BOSTON FAIR 37 19 48 SW12 30.00R WORCESTER CLOUDY 33 18 53 W12 29.96R NANTUCKET FAIR 33 22 63 W10 30.04R PROVIDENCE FAIR 30 21 69 SW7 30.04R HARTFORD MOCLDY 34 21 59 SW5 30.03R ALBANY FLURRIES 32 16 51 W21G31 30.11R WCI 20 NEW YORK CITY MOCLDY 40 20 44 W15G25 30.10R $$ ANZ081-ANZ082-ANZ150-NHZ014-MEZ023>029-170100- COASTAL MARINE OBSERVATIONS STATION/POSITION TIME TEMP WIND PRES WAVE AIR SEA DIR/SP/G HT/PER (UTC) (F) (DEG/KT/KT) (MB) (FT/S) MOUNT DESERT ROC 0000 37 230/ 27/ 29 1011.1R MATINICUS ROCK 2300 37 250/ 21/ 23 1010.6R ISLE OF SHOALS 2300 37 240/ 21/ 23 1012.9R JEFFREYS LEDGE 2338 43 N/A 5/ 5 CASHES LEDGE BUO 2350 37 40 1012.5R 5/ 6 $$ .............KEY.............. WCI - WIND CHILL TC - TEMPERATURE IN CELSIUS VSB - VISIBILITY IN MILES HX - HEAT INDEX FAIR- INDICATES FEW OR NO CLOUDS BELOW 12,000 FT, WITH NO SIGNIFICANT WEATHER AND/OR OBSTRUCTIONS TO VISIBILITY.

USA.gov is the U.S. government's official web portal to all federal, state and local government web resources and services.